BLOCK DM-SL DEB, 46091

Orbit data source: Space-Track

BLOCK DM-SL DEB, 46091 is space debris in GEO originally from a launch on Tue, 24 Dec 2019 UTC launched from the Tyuratam Missile And Space Complex (TTMTR). Debris objects in space refer to the collection of defunct objects orbiting the Earth. Examples of debris include non-operational satellites, rocket bodies, and fragments generated from explosions, collisions, or faulty payload assembly.

Not visible in the next 10 days
Identifier
46091, 2019-095E
Orbit
GEO
Last TLE update
1 day ago
Origin
Manufacturer
Lavochkin
Mission
Spacecraft
Bus & Motor
Unknown
Mass
Unknown
Launch date (UTC)
2019-12-24 (6 years ago)
Launch vehicle
Unknown
Launch site
Tyuratam Missile And Space Complex (TTMTR)
Object type
Payload
Rocket body
Debris
Shape & HBR
Unknown
Radar Cross Section
Medium (>0.1 m² and <1 m²)

Expand to show TLE details & history

TLE from 1 day ago
0 BLOCK DM-SL DEB
1 46091U 19095E   25181.04028180 -.00000037  00000-0  00000+0 0  9994
2 46091   4.4510  78.0222 0050111 270.7365  88.4977  1.03260552 20093
Epoch: 2025-06-30T00:58Z
TLE epoch observation values (Epoch: 2025-06-30T00:58:00.347Z)
Latitude
0.00001°
Longitude
144.98818°
Altitude
34,964.867 km
Speed
3.105 km/s
True Right ascension
05h 11m 22s
True Declination
0° 00' 00"
Sunlit
Object was in daylight at epoch
Visualization orbit readout
Latitude
2.65936°
Longitude
-71.46023°
Altitude
35,092.818 km
Speed
3.096 km/s
Apparent Right ascension
14h 19m 06s
Apparent Declination
-2° 54' 43"
Sunlit
Object is in daylight
Visualization observer readout
Local Sidereal Time
21:10:32
Azimuth
276.076° WNW
Elevation
-11.715°
Doppler factor
1
Orbital elements
Apogee altitude
35,177.291 km
Perigee altitude
34,762.891 km
Semi-major axis
41,348.228 km
Eccentricity
0.00501
Inclination
4.451°
RAAN
78.0222°
Arg. of periapsis
270.7365°
True anomaly
Unknown
Mean anomaly
88.4977°
Eccentric anomaly
Unknown
Mean motion
0.25814 °/min
Orbital period
1,394.58 mins
BSTAR
0
Loading historical data...
46091 neighbors
Loading maneuver chart data...
Loading SW <> Apogee altitude chart data...
Loading historical data...
Loading historical data...
Loading historical data...
Loading historical data...
Loading historical data...
Loading historical data...
Loading historical data...
Other satellites on launch #95 in the year 2019 (2019-12-24 UTC)

BLOCK DM-SL DEB Visibility

Observer location: undefined°, undefined°

BLOCK DM-SL DEB is likely not visible in the next few days
Span
Click to sort rows by Start time (UTC) header in descending order
Start Az.
Max El. time (UTC)
Max El. Az.
Max El.
End time (UTC)
End Az.
|